K5EBQ Weather Reports


Display with metric or nautical units.
time (UTC)temp
F
wind
direction
speed
MPH
gust
MPH
rain 1hr
in
rain 24hr
in
rain mn
in
humidity
%
barometer
mb
20260905131515 80 192 0.0 0.0 0.00 0.27 0.01 98 1011.6
20260905130012 79 192 0.0 0.0 0.00 0.27 0.01 98 1011.5
20260905124510 78 192 0.0 0.0 0.00 0.27 0.01 98 1011.4
20260905123008 77 192 0.0 0.0 0.00 0.27 0.01 98 1011.1
20260905121508 77 192 0.0 0.0 0.00 0.27 0.01 98 1011.0
20260905120016 77 192 0.0 0.0 0.00 0.27 0.01 97 1010.9
20260905114504 77 192 0.0 0.0 0.00 0.27 0.01 98 1010.7
20260905113004 77 192 0.0 0.0 0.00 0.27 0.01 98 1010.5
20260905111503 77 192 0.0 0.0 0.00 0.27 0.01 97 1010.4
20260905110011 77 192 0.0 0.0 0.00 0.31 0.01 98 1010.2
20260905104507 77 192 0.0 0.0 0.00 0.31 0.01 97 1010.1
20260905103005 77 192 0.0 0.0 0.00 0.31 0.01 97 1010.2
20260905101501 77 192 0.0 0.0 0.00 0.31 0.01 97 1010.1
20260905094600 77 192 0.0 0.0 0.00 0.31 0.01 97 1010.1
20260905093121 78 192 0.0 0.0 0.00 0.31 0.01 97 1010.2
20260905091600 78 192 0.0 0.0 0.00 0.31 0.01 97 1010.2
20260905090057 78 192 0.0 0.0 0.00 0.31 0.01 97 1010.1
20260905084601 78 192 0.0 0.0 0.00 0.31 0.01 97 1010.1
20260905083056 78 192 0.0 0.0 0.00 0.31 0.01 97 1009.9
20260905081556 78 192 0.0 0.0 0.00 0.31 0.01 97 1010.0
20260905080055 78 192 0.0 0.0 0.00 0.31 0.01 97 1010.1
20260905074553 78 192 0.0 0.0 0.00 0.31 0.01 97 1010.1
20260905073051 78 192 0.0 0.0 0.00 0.31 0.01 97 1010.3
20260905071550 78 192 0.0 0.0 0.00 0.31 0.01 97 1010.4
20260905070054 78 192 0.0 0.0 0.01 0.31 0.01 97 1010.6
20260905064608 78 192 0.0 0.0 0.01 0.31 0.01 97 1010.5
20260905063046 78 192 0.0 0.0 0.01 0.31 0.01 97 1010.6
20260905061545 78 192 0.0 0.0 0.01 0.31 0.01 97 1010.8
20260905060044 78 192 0.0 0.0 0.00 0.30 0.00 97 1010.8
20260905054549 78 192 0.0 0.0 0.00 0.30 0.00 96 1010.7
20260905053043 78 192 0.0 0.0 0.00 0.30 0.00 96 1010.9
20260905051546 78 192 0.0 0.0 0.00 0.30 0.00 96 1010.8
20260905050040 78 192 0.0 0.0 0.00 0.30 0.30 96 1010.8
20260905044540 78 192 0.0 0.0 0.00 0.30 0.30 96 1010.8
20260905043039 78 192 0.0 0.0 0.00 0.30 0.30 96 1010.8
20260905041538 77 192 0.0 0.0 0.00 0.30 0.30 96 1010.9
20260905040038 77 192 0.0 0.0 0.00 0.30 0.30 96 1011.0
20260905034538 77 192 0.0 0.0 0.00 0.30 0.30 95 1011.1
20260905033037 77 192 0.0 0.0 0.00 0.30 0.30 95 1011.1
20260905031537 77 192 0.0 0.0 0.00 0.30 0.30 95 1011.2
20260905030036 78 192 0.0 0.0 0.00 0.30 0.30 96 1011.1
20260905024535 77 192 0.0 0.0 0.00 0.30 0.30 95 1011.0
20260905023037 78 192 0.0 0.0 0.00 0.30 0.30 95 1010.9
20260905021539 77 192 0.0 0.0 0.02 0.30 0.30 95 1010.7
20260905020033 77 192 0.0 0.0 0.07 0.30 0.30 94 1010.5
20260905014546 77 192 0.0 0.0 0.17 0.30 0.30 94 1010.3
20260905013033 76 192 0.0 0.0 0.23 0.30 0.30 92 1010.2
20260905011532 77 192 0.0 0.0 0.21 0.28 0.28 91 1010.2
20260905010032 77 157 1.0 20.0 0.16 0.23 0.23 90 1010.3
20260905004528 80 161 22.0 61.0 0.05 0.12 0.13 86 1010.4
20260905003032 83 138 41.0 113.0 0.00 0.07 0.07 80 1010.3
20260905001522 89 172 28.0 68.0 0.00 0.07 0.07 70 1009.7
20260905000021 90 73 0.0 0.0 0.00 0.07 0.07 66 1009.4
20260904234521 91 57 0.0 0.0 0.00 0.07 0.07 66 1009.4
20260904233024 91 51 0.0 53.0 0.00 0.07 0.07 64 1009.3
20260904231520 91 90 6.0 31.0 0.00 0.07 0.07 65 1009.4
20260904230020 91 72 10.0 45.0 0.00 0.07 0.07 65 1009.4
20260904224524 91 65 21.0 69.0 0.00 0.07 0.07 65 1009.4
20260904223019 92 34 39.0 80.0 0.00 0.07 0.07 65 1009.3
20260904221538 93 243 0.0 0.0 0.00 0.07 0.07 59 1009.5
20260904220015 94 108 0.0 2.0 0.00 0.08 0.07 59 1009.7
20260904214518 93 146 0.0 3.0 0.00 0.08 0.07 60 1009.7
20260904213017 93 202 0.0 0.0 0.00 0.08 0.07 62 1009.7
20260904211512 92 155 0.0 0.0 0.00 0.08 0.07 63 1009.9
20260904210010 93 171 0.0 0.0 0.00 0.12 0.07 63 1010.2
20260904204510 93 171 0.0 0.0 0.00 0.12 0.07 64 1010.4
20260904203008 93 171 0.0 0.0 0.00 0.12 0.07 62 1010.8
20260904201504 92 175 0.0 0.0 0.00 0.12 0.07 66 1010.9
20260904200005 91 231 0.0 0.0 0.00 0.13 0.07 67 1010.9
20260904194503 90 191 0.0 0.0 0.00 0.13 0.07 69 1011.1
20260904193004 89 97 0.0 0.0 0.00 0.13 0.07 71 1011.2
20260904191502 87 87 0.0 0.0 0.00 0.13 0.07 77 1011.5
20260904190006 84 229 0.0 0.0 0.00 1.42 0.07 82 1011.9
20260904184502 83 290 0.0 0.0 0.00 1.42 0.07 81 1012.3
20260904183002 83 289 0.0 0.0 0.01 1.42 0.07 80 1012.2
20260904181601 82 289 0.0 0.0 0.01 1.42 0.07 84 1012.6
20260904180100 80 288 0.0 0.0 0.02 1.49 0.07 87 1012.9
20260904174604 79 308 0.0 0.0 0.02 1.49 0.07 88 1012.8
20260904173110 79 309 0.0 0.0 0.01 1.48 0.06 89 1012.8
20260904171558 81 288 0.0 0.0 0.01 1.48 0.06 85 1013.2
20260904170057 84 236 0.0 0.0 0.00 1.48 0.05 77 1013.7
20260904164555 89 128 0.0 0.0 0.00 1.48 0.05 77 1012.8
20260904163052 91 53 0.0 0.0 0.00 1.48 0.05 75 1012.5
20260904161549 92 34 0.0 0.0 0.00 1.48 0.05 69 1012.2
20260904160044 92 52 0.0 0.0 0.00 1.48 0.05 70 1012.0
20260904154539 91 190 0.0 0.0 0.00 1.48 0.05 73 1012.1
20260904153042 91 82 0.0 0.0 0.00 1.48 0.05 75 1011.9
20260904151541 89 190 0.0 0.0 0.00 1.48 0.05 79 1012.0
20260904150034 88 167 0.0 0.0 0.00 1.48 0.05 82 1011.9
20260904144528 88 57 0.0 0.0 0.01 1.48 0.05 83 1012.0
20260904143024 87 69 0.0 0.0 0.01 1.48 0.05 87 1011.9
20260904141522 85 56 0.0 0.0 0.01 1.48 0.05 91 1011.9
20260904140017 83 55 0.0 0.0 0.01 1.48 0.05 96 1011.9
20260904134516 81 46 0.0 0.0 0.00 1.47 0.04 97 1011.8
20260904133011 81 46 0.0 0.0 0.00 1.47 0.04 97 1011.8